Location: Newark
(55.2875°N, 3.1864°W)
Time: 16:48:23
(UTC+00:00)

ISS - Pass Details

Date: 27 January 2020
Orbit: 416 x 422 km, 51.6° (Epoch: 17 February)

Event Time Altitude Azimuth Distance (km) Brightness Sun altitude
Rises 19:47:01 0° 262° (W) 2,377 1.3 -26.6°
Reaches altitude 10° 19:49:10 10° 256° (WSW) 1,511 -0.1 -26.9°
Enters shadow 19:50:29 21° 246° (WSW) 1,015 -1.3 -27.1°
